Time,TemperatureF,DewpointF,PressureIn,WindDirection,WindDirectionDegrees,WindSpeedMPH,WindSpeedGustMPH,Humidity,HourlyPrecipIn,Conditions,Clouds,dailyrainin,SoftwareType,DateUTC
2013-05-07 00:02:00,63.0,-99.9,-100.00,WNW,282,1.0,-999.0,-999,0.00,,,0.00,,2013-05-07 05:02:00,
2013-05-07 00:13:00,63.0,-99.9,-100.00,WNW,282,1.0,-999.0,-999,0.00,,,0.00,,2013-05-07 05:13:00,
2013-05-07 00:22:00,63.0,-99.9,-100.00,WNW,282,1.0,-999.0,-999,0.00,,,0.00,,2013-05-07 05:22:00,
2013-05-07 00:32:00,62.0,-99.9,-100.00,West,274,2.0,-999.0,-999,0.00,,,0.00,,2013-05-07 05:32:00,
2013-05-07 00:43:00,62.0,-99.9,-100.00,West,274,2.0,-999.0,-999,0.00,,,0.00,,2013-05-07 05:43:00,
2013-05-07 00:52:00,62.0,-99.9,-100.00,West,274,2.0,-999.0,-999,0.00,,,0.00,,2013-05-07 05:52:00,
2013-05-07 01:02:00,62.0,-99.9,-100.00,West,264,2.0,-999.0,-999,0.00,,,0.00,,2013-05-07 06:02:00,
2013-05-07 01:12:00,62.0,-99.9,-100.00,West,264,2.0,-999.0,-999,0.00,,,0.00,,2013-05-07 06:12:00,
2013-05-07 01:22:00,62.0,-99.9,-100.00,West,264,2.0,-999.0,-999,0.00,,,0.00,,2013-05-07 06:22:00,
2013-05-07 01:32:00,61.0,-99.9,-100.00,West,272,2.0,-999.0,-999,0.00,,,0.00,,2013-05-07 06:32:00,
2013-05-07 01:42:00,61.0,-99.9,-100.00,West,272,2.0,-999.0,-999,0.00,,,0.00,,2013-05-07 06:42:00,
2013-05-07 01:52:00,61.0,-99.9,-100.00,West,272,2.0,-999.0,-999,0.00,,,0.00,,2013-05-07 06:52:00,
2013-05-07 02:02:00,61.0,-99.9,-100.00,West,269,3.0,-999.0,-999,0.00,,,0.00,,2013-05-07 07:02:00,
2013-05-07 02:11:00,61.0,-99.9,-100.00,West,269,3.0,-999.0,-999,0.00,,,0.00,,2013-05-07 07:11:00,
2013-05-07 02:22:00,61.0,-99.9,-100.00,West,269,3.0,-999.0,-999,0.00,,,0.00,,2013-05-07 07:22:00,
2013-05-07 02:32:00,61.0,-99.9,-100.00,West,275,3.0,-999.0,-999,0.00,,,0.00,,2013-05-07 07:32:00,
2013-05-07 02:42:00,61.0,-99.9,-100.00,West,275,3.0,-999.0,-999,0.00,,,0.00,,2013-05-07 07:42:00,
2013-05-07 02:53:00,61.0,-99.9,-100.00,West,275,3.0,-999.0,-999,0.00,,,0.00,,2013-05-07 07:53:00,
2013-05-07 03:02:00,61.0,-99.9,-100.00,NNE,18,2.0,-999.0,-999,0.00,,,0.00,,2013-05-07 08:02:00,
2013-05-07 03:11:00,61.0,-99.9,-100.00,NNE,18,2.0,-999.0,-999,0.00,,,0.00,,2013-05-07 08:11:00,
2013-05-07 03:22:00,61.0,-99.9,-100.00,NNE,18,2.0,-999.0,-999,0.00,,,0.00,,2013-05-07 08:22:00,
2013-05-07 03:32:00,59.0,-99.9,-100.00,WNW,284,2.0,-999.0,-999,0.00,,,0.00,,2013-05-07 08:32:00,
2013-05-07 03:42:00,59.0,-99.9,-100.00,WNW,284,2.0,-999.0,-999,0.00,,,0.00,,2013-05-07 08:42:00,
2013-05-07 03:52:00,59.0,-99.9,-100.00,WNW,284,2.0,-999.0,-999,0.00,,,0.00,,2013-05-07 08:52:00,
2013-05-07 04:02:00,57.0,-99.9,-100.00,West,276,1.0,-999.0,-999,0.00,,,0.00,,2013-05-07 09:02:00,
2013-05-07 04:12:00,57.0,-99.9,-100.00,West,276,1.0,-999.0,-999,0.00,,,0.00,,2013-05-07 09:12:00,
2013-05-07 04:23:00,57.0,-99.9,-100.00,West,276,1.0,-999.0,-999,0.00,,,0.00,,2013-05-07 09:23:00,
2013-05-07 04:33:00,56.0,-99.9,-100.00,ENE,72,2.0,-999.0,-999,0.00,,,0.00,,2013-05-07 09:33:00,
2013-05-07 04:43:00,56.0,-99.9,-100.00,ENE,72,2.0,-999.0,-999,0.00,,,0.00,,2013-05-07 09:43:00,
2013-05-07 04:53:00,56.0,-99.9,-100.00,ENE,72,2.0,-999.0,-999,0.00,,,0.00,,2013-05-07 09:53:00,
2013-05-07 05:03:00,55.0,-99.9,-100.00,West,274,2.0,-999.0,-999,0.00,,,0.00,,2013-05-07 10:03:00,
2013-05-07 05:13:00,55.0,-99.9,-100.00,West,274,2.0,-999.0,-999,0.00,,,0.00,,2013-05-07 10:13:00,
2013-05-07 05:23:00,55.0,-99.9,-100.00,West,274,2.0,-999.0,-999,0.00,,,0.00,,2013-05-07 10:23:00,
2013-05-07 05:33:00,55.0,-99.9,-100.00,West,265,2.0,-999.0,-999,0.00,,,0.00,,2013-05-07 10:33:00,
2013-05-07 05:42:00,55.0,-99.9,-100.00,West,265,2.0,-999.0,-999,0.00,,,0.00,,2013-05-07 10:42:00,
2013-05-07 05:52:00,55.0,-99.9,-100.00,West,265,2.0,-999.0,-999,0.00,,,0.00,,2013-05-07 10:52:00,
2013-05-07 06:03:00,55.0,-99.9,-100.00,WNW,294,1.0,-999.0,-999,0.00,,,0.00,,2013-05-07 11:03:00,
2013-05-07 06:12:00,55.0,-99.9,-100.00,WNW,294,1.0,-999.0,-999,0.00,,,0.00,,2013-05-07 11:12:00,
2013-05-07 06:22:00,55.0,-99.9,-100.00,WNW,294,1.0,-999.0,-999,0.00,,,0.00,,2013-05-07 11:22:00,
2013-05-07 06:32:00,54.0,-99.9,-100.00,West,276,1.0,-999.0,-999,0.00,,,0.00,,2013-05-07 11:32:00,
2013-05-07 06:42:00,54.0,-99.9,-100.00,West,276,1.0,-999.0,-999,0.00,,,0.00,,2013-05-07 11:42:00,
2013-05-07 06:52:00,54.0,-99.9,-100.00,West,276,1.0,-999.0,-999,0.00,,,0.00,,2013-05-07 11:52:00,
2013-05-07 07:02:00,55.0,-99.9,-100.00,NW,312,0.0,-999.0,-999,0.00,,,0.00,,2013-05-07 12:02:00,
2013-05-07 07:12:00,55.0,-99.9,-100.00,NW,312,0.0,-999.0,-999,0.00,,,0.00,,2013-05-07 12:12:00,
2013-05-07 07:22:00,55.0,-99.9,-100.00,NW,312,0.0,-999.0,-999,0.00,,,0.00,,2013-05-07 12:22:00,
2013-05-07 07:32:00,60.0,-99.9,-100.00,NNW,343,3.0,-999.0,-999,0.00,,,0.00,,2013-05-07 12:32:00,
2013-05-07 07:42:00,60.0,-99.9,-100.00,NNW,343,3.0,-999.0,-999,0.00,,,0.00,,2013-05-07 12:42:00,
2013-05-07 07:52:00,60.0,-99.9,-100.00,NNW,343,3.0,-999.0,-999,0.00,,,0.00,,2013-05-07 12:52:00,
2013-05-07 08:02:00,63.0,-99.9,-100.00,NW,323,3.0,-999.0,-999,0.00,,,0.00,,2013-05-07 13:02:00,
2013-05-07 08:11:00,63.0,-99.9,-100.00,NW,323,3.0,-999.0,-999,0.00,,,0.00,,2013-05-07 13:11:00,
2013-05-07 08:22:00,63.0,-99.9,-100.00,NW,323,3.0,-999.0,-999,0.00,,,0.00,,2013-05-07 13:22:00,
2013-05-07 08:32:00,69.0,-99.9,-100.00,NNW,344,2.0,-999.0,-999,0.00,,,0.00,,2013-05-07 13:32:00,
2013-05-07 08:42:00,69.0,-99.9,-100.00,NNW,344,2.0,-999.0,-999,0.00,,,0.00,,2013-05-07 13:42:00,
2013-05-07 08:52:00,69.0,-99.9,-100.00,NNW,344,2.0,-999.0,-999,0.00,,,0.00,,2013-05-07 13:52:00,
2013-05-07 09:02:00,68.0,-99.9,-100.00,NNE,16,2.0,-999.0,-999,0.00,,,0.00,,2013-05-07 14:02:00,
2013-05-07 09:11:00,68.0,-99.9,-100.00,NNE,16,2.0,-999.0,-999,0.00,,,0.00,,2013-05-07 14:11:00,
2013-05-07 09:22:00,68.0,-99.9,-100.00,NNE,16,2.0,-999.0,-999,0.00,,,0.00,,2013-05-07 14:22:00,
2013-05-07 09:32:00,66.0,-99.9,-100.00,NE,47,1.0,-999.0,-999,0.00,,,0.00,,2013-05-07 14:32:00,
2013-05-07 09:42:00,66.0,-99.9,-100.00,NE,47,1.0,-999.0,-999,0.00,,,0.00,,2013-05-07 14:42:00,
2013-05-07 09:52:00,66.0,-99.9,-100.00,NE,47,1.0,-999.0,-999,0.00,,,0.00,,2013-05-07 14:52:00,
2013-05-07 10:00:00,74.0,-99.9,-100.00,NNW,348,2.0,-999.0,-999,0.00,,,0.00,,2013-05-07 15:00:00,
2013-05-07 10:01:00,74.0,-99.9,-100.00,North,358,2.0,-999.0,-999,0.00,,,0.00,,2013-05-07 15:01:00,
2013-05-07 10:12:00,74.0,-99.9,-100.00,North,358,2.0,-999.0,-999,0.00,,,0.00,,2013-05-07 15:12:00,
2013-05-07 10:22:00,74.0,-99.9,-100.00,North,358,2.0,-999.0,-999,0.00,,,0.00,,2013-05-07 15:22:00,
2013-05-07 10:33:00,74.0,-99.9,-100.00,NNW,348,2.0,-999.0,-999,0.00,,,0.00,,2013-05-07 15:33:00,
2013-05-07 10:43:00,74.0,-99.9,-100.00,NNW,348,2.0,-999.0,-999,0.00,,,0.00,,2013-05-07 15:43:00,
2013-05-07 10:53:00,74.0,-99.9,-100.00,NNW,348,2.0,-999.0,-999,0.00,,,0.00,,2013-05-07 15:53:00,
2013-05-07 13:32:00,78.0,-99.9,-100.00,NNW,345,3.0,-999.0,-999,0.00,,,0.00,,2013-05-07 18:32:00,
2013-05-07 13:42:00,78.0,-99.9,-100.00,NNW,345,3.0,-999.0,-999,0.00,,,0.00,,2013-05-07 18:42:00,
2013-05-07 13:52:00,78.0,-99.9,-100.00,NNW,345,3.0,-999.0,-999,0.00,,,0.00,,2013-05-07 18:52:00,
2013-05-07 14:02:00,79.0,-99.9,-100.00,NNW,340,2.0,-999.0,-999,0.00,,,0.00,,2013-05-07 19:02:00,
2013-05-07 14:11:00,79.0,-99.9,-100.00,NNW,340,2.0,-999.0,-999,0.00,,,0.00,,2013-05-07 19:11:00,
2013-05-07 14:22:00,79.0,-99.9,-100.00,NNW,340,2.0,-999.0,-999,0.00,,,0.00,,2013-05-07 19:22:00,
2013-05-07 14:32:00,81.0,-99.9,-100.00,NNW,331,3.0,-999.0,-999,0.00,,,0.00,,2013-05-07 19:32:00,
2013-05-07 14:42:00,81.0,-99.9,-100.00,NNW,331,3.0,-999.0,-999,0.00,,,0.00,,2013-05-07 19:42:00,
2013-05-07 14:52:00,81.0,-99.9,-100.00,NNW,331,3.0,-999.0,-999,0.00,,,0.00,,2013-05-07 19:52:00,
2013-05-07 15:02:00,82.0,-99.9,-100.00,North,351,3.0,-999.0,-999,0.00,,,0.00,,2013-05-07 20:02:00,
2013-05-07 15:12:00,82.0,-99.9,-100.00,North,351,3.0,-999.0,-999,0.00,,,0.00,,2013-05-07 20:12:00,
2013-05-07 15:22:00,82.0,-99.9,-100.00,North,351,3.0,-999.0,-999,0.00,,,0.00,,2013-05-07 20:22:00,
2013-05-07 15:32:00,85.0,-99.9,-100.00,NNE,24,0.0,-999.0,-999,0.00,,,0.00,,2013-05-07 20:32:00,
2013-05-07 15:42:00,85.0,-99.9,-100.00,NNE,24,0.0,-999.0,-999,0.00,,,0.00,,2013-05-07 20:42:00,
2013-05-07 15:52:00,85.0,-99.9,-100.00,NNE,24,0.0,-999.0,-999,0.00,,,0.00,,2013-05-07 20:52:00,
2013-05-07 16:02:00,83.0,-99.9,-100.00,NE,37,0.0,-999.0,-999,0.00,,,0.00,,2013-05-07 21:02:00,
2013-05-07 16:11:00,83.0,-99.9,-100.00,NE,37,0.0,-999.0,-999,0.00,,,0.00,,2013-05-07 21:11:00,
2013-05-07 16:22:00,83.0,-99.9,-100.00,NE,37,0.0,-999.0,-999,0.00,,,0.00,,2013-05-07 21:22:00,
2013-05-07 16:33:00,95.0,-99.9,-100.00,North,350,1.0,-999.0,-999,0.00,,,0.00,,2013-05-07 21:33:00,
2013-05-07 16:43:00,95.0,-99.9,-100.00,North,350,1.0,-999.0,-999,0.00,,,0.00,,2013-05-07 21:43:00,
2013-05-07 16:53:00,95.0,-99.9,-100.00,North,350,1.0,-999.0,-999,0.00,,,0.00,,2013-05-07 21:53:00,
2013-05-07 17:02:00,80.0,-99.9,-100.00,NNE,14,0.0,-999.0,-999,0.00,,,0.00,,2013-05-07 22:02:00,
2013-05-07 17:13:00,80.0,-99.9,-100.00,NNE,14,0.0,-999.0,-999,0.00,,,0.00,,2013-05-07 22:13:00,
2013-05-07 17:23:00,80.0,-99.9,-100.00,NNE,14,0.0,-999.0,-999,0.00,,,0.00,,2013-05-07 22:23:00,
2013-05-07 17:33:00,83.0,-99.9,-100.00,NNE,15,1.0,-999.0,-999,0.00,,,0.00,,2013-05-07 22:33:00,
2013-05-07 17:42:00,83.0,-99.9,-100.00,NNE,15,1.0,-999.0,-999,0.00,,,0.00,,2013-05-07 22:42:00,
2013-05-07 17:52:00,83.0,-99.9,-100.00,NNE,15,1.0,-999.0,-999,0.00,,,0.00,,2013-05-07 22:52:00,
2013-05-07 18:02:00,78.0,-99.9,-100.00,NE,40,1.0,-999.0,-999,0.00,,,0.00,,2013-05-07 23:02:00,
2013-05-07 18:12:00,78.0,-99.9,-100.00,NE,40,1.0,-999.0,-999,0.00,,,0.00,,2013-05-07 23:12:00,
2013-05-07 18:22:00,78.0,-99.9,-100.00,NE,40,1.0,-999.0,-999,0.00,,,0.00,,2013-05-07 23:22:00,
2013-05-07 18:32:00,85.0,-99.9,-100.00,North,11,0.0,-999.0,-999,0.00,,,0.00,,2013-05-07 23:32:00,
2013-05-07 18:42:00,85.0,-99.9,-100.00,North,11,0.0,-999.0,-999,0.00,,,0.00,,2013-05-07 23:42:00,
2013-05-07 18:52:00,85.0,-99.9,-100.00,North,11,0.0,-999.0,-999,0.00,,,0.00,,2013-05-07 23:52:00,
2013-05-07 19:02:00,88.0,-99.9,-100.00,NNE,12,1.0,-999.0,-999,0.00,,,0.00,,2013-05-08 00:02:00,
2013-05-07 19:12:00,88.0,-99.9,-100.00,NNE,12,1.0,-999.0,-999,0.00,,,0.00,,2013-05-08 00:12:00,
2013-05-07 19:22:00,88.0,-99.9,-100.00,NNE,12,1.0,-999.0,-999,0.00,,,0.00,,2013-05-08 00:22:00,
2013-05-07 19:32:00,75.0,-99.9,-100.00,SSE,157,2.0,-999.0,-999,0.00,,,0.00,,2013-05-08 00:32:00,
2013-05-07 19:42:00,75.0,-99.9,-100.00,SSE,157,2.0,-999.0,-999,0.00,,,0.00,,2013-05-08 00:42:00,
2013-05-07 19:52:00,75.0,-99.9,-100.00,SSE,157,2.0,-999.0,-999,0.00,,,0.00,,2013-05-08 00:52:00,
2013-05-07 20:00:00,70.0,-99.9,-100.00,West,263,0.0,-999.0,-999,0.00,,,0.00,,2013-05-08 01:00:00,
2013-05-07 20:02:00,73.0,-99.9,-100.00,West,264,0.0,-999.0,-999,0.00,,,0.00,,2013-05-08 01:02:00,
2013-05-07 20:12:00,73.0,-99.9,-100.00,West,264,0.0,-999.0,-999,0.00,,,0.00,,2013-05-08 01:12:00,
2013-05-07 20:22:00,73.0,-99.9,-100.00,West,264,0.0,-999.0,-999,0.00,,,0.00,,2013-05-08 01:22:00,
2013-05-07 20:32:00,70.0,-99.9,-100.00,West,263,0.0,-999.0,-999,0.00,,,0.00,,2013-05-08 01:32:00,
2013-05-07 20:42:00,70.0,-99.9,-100.00,West,263,0.0,-999.0,-999,0.00,,,0.00,,2013-05-08 01:42:00,
2013-05-07 20:52:00,70.0,-99.9,-100.00,West,263,0.0,-999.0,-999,0.00,,,0.00,,2013-05-08 01:52:00,
2013-05-07 21:32:00,66.0,-99.9,-100.00,South,174,0.0,-999.0,-999,0.00,,,0.00,,2013-05-08 02:32:00,
2013-05-07 21:42:00,66.0,-99.9,-100.00,South,174,0.0,-999.0,-999,0.00,,,0.00,,2013-05-08 02:42:00,
2013-05-07 21:52:00,66.0,-99.9,-100.00,South,174,0.0,-999.0,-999,0.00,,,0.00,,2013-05-08 02:52:00,
2013-05-07 22:02:00,64.0,-99.9,-100.00,South,174,0.0,-999.0,-999,0.00,,,0.00,,2013-05-08 03:02:00,
2013-05-07 22:12:00,64.0,-99.9,-100.00,South,174,0.0,-999.0,-999,0.00,,,0.00,,2013-05-08 03:12:00,
2013-05-07 22:22:00,64.0,-99.9,-100.00,South,174,0.0,-999.0,-999,0.00,,,0.00,,2013-05-08 03:22:00,
2013-05-07 22:33:00,63.0,-99.9,-100.00,South,174,0.0,-999.0,-999,0.00,,,0.00,,2013-05-08 03:33:00,
2013-05-07 22:43:00,63.0,-99.9,-100.00,South,174,0.0,-999.0,-999,0.00,,,0.00,,2013-05-08 03:43:00,
2013-05-07 22:53:00,63.0,-99.9,-100.00,South,174,0.0,-999.0,-999,0.00,,,0.00,,2013-05-08 03:53:00,
2013-05-07 23:02:00,62.0,-99.9,-100.00,South,174,0.0,-999.0,-999,0.00,,,0.00,,2013-05-08 04:02:00,
2013-05-07 23:13:00,62.0,-99.9,-100.00,South,174,0.0,-999.0,-999,0.00,,,0.00,,2013-05-08 04:13:00,
2013-05-07 23:23:00,62.0,-99.9,-100.00,South,174,0.0,-999.0,-999,0.00,,,0.00,,2013-05-08 04:23:00,
2013-05-07 23:33:00,61.0,-99.9,-100.00,South,174,0.0,-999.0,-999,0.00,,,0.00,,2013-05-08 04:33:00,
2013-05-07 23:43:00,61.0,-99.9,-100.00,South,174,0.0,-999.0,-999,0.00,,,0.00,,2013-05-08 04:43:00,
2013-05-07 23:53:00,61.0,-99.9,-100.00,South,174,0.0,-999.0,-999,0.00,,,0.00,,2013-05-08 04:53:00,